Погода в Угуте

Погода в Угуте : погода сейчас, прогноз погоды и архив. Всё, что Вы хотите узнать о погоде в Угуте!

Поиск расширенной информации на нашем сайте:

Другие новости

Новости СМИ2

Главная страница сайта

Новости сайта

03.07.2017

Напоминаем, что на нашем специализированном сайте Метеоцентр.Азия вы можете получить высокодетализированные автоматические прогнозы погоды по пунктам России, СНГ и мира в авиационном формате (включающие направление и скорость ветра, видимость, явления погоды, количество и форму облачности, нижнюю и верхнюю границу облачности).

Рекомендуем: строительство каркасных домов Екатеринбург

Погода в Угуте - сегодня

Время (UTC), дата Ветер
(°,м/с) 
Видим.   Явления Облачность Т
(°С)
Тd
(°С)
f(%) Тe
(°С)
Pmin
(гПа)
dP
(гПа)
Po
(мм)
O2
(г/м3)
Тmin Tmax R s Состояние
почвы
06 12.08.18 280 (З) 10 км    10/10 600 м кучево-дожд. 
[Cb cap]
+12.8 +5.7 62 +13  1002.8  0.8  748  287           
09 12.08.18 260 (З) 10 км    10/10 600 м кучево-дожд. 
[Cb cap]
+14.3 +5.6 56 +14  1003.7  0.9  748  286           
12 12.08.18 230 (ЮЗ) 10 км    9/9 600 м кучево-дожд. 
[Cb cap]
+14.9 +6.7 58 +15  1004.5  0.8  749  285           
18 12.08.18 220 (ЮЗ) 10 км    3/0 средняя 
[Ac trans]
+12.1 +7.8 75 +12  1005.6  0.3  750  288           
21 12.08.18 220 (ЮЗ) 10 км    1/0 средняя 
[Ac trans]
+10.4 +7 79 +11  1006.3  0.7  750  290           
00 13.08.18 210 (ЮЗ) 10 км    4/3 1000 м средняя 
[Sc|Ac trans]
+8.3 +6.4 88 +9  1007.1  0.7  751  293           
03 13.08.18 230 (ЮЗ) 10 км    3/0 верхняя 
[Ci fib]
+13 +8.4 74 +13  1008.2  1.2  752  288  +8.1         
06 13.08.18 250 (З) 10 км    9/8 600 м средняя, верхняя 
[Cu med, cong|Ac trans|Ci ing]
+18.1 +9.7 58 +19  1008.7  0.6  752  282           
09 13.08.18 230 (ЮЗ) 10 км    9/8 600 м кучево-дожд., средняя 
[Cb cap|Ac trans]
+19.4 +8.7 50 +20  1009.3  0.7  753  282           
12 13.08.18 210 (ЮЗ) 10 км    8/6 1000 м средняя, верхняя 
[Sc diur, vesp|Ac cuf|Ci fib]
+21.1 +8 43 +21  1009.7  0.4  753  280           
18 13.08.18 170 (Ю) 10 км    ясно 
+15.2 +10.2 72 +18  1010.8  0.5  754  286           
21 13.08.18 190 (Ю) 10 км    ясно 
+13.7 +10.7 82 +17  1010.8  754  287           
00 14.08.18 170 (Ю) 20000 м    3/0 верхняя 
[Ci fib]
+13.4 +11.7 89 +17  1010.7  -0.1  754  287           
03 14.08.18 190 (Ю) 10 км    8/8 600 м кучево-дожд. 
[Cb cap]
+18.4 +14.1 76 +26  1010.2  -0.4  753  282  +13         
06 14.08.18 200 (Ю) 10 км    4/0 верхняя 
[Ci fib]
+23.4 +15.4 61 +33  1009.9  -0.3  753  276           
09 14.08.18 210 (ЮЗ) 10 км  {ливн. осадки}  6/4 600 м верхняя 
[Cu med, cong|Ci fib]
+27.4 +14.8 46 +36  1009  -0.7  753  273           
15 14.08.18 150 (ЮВ) 10 км  гроза без осадков  8/8 600 м кучево-дожд. 
[Cb cap]
+22.9 +15.8 64 +33  1008.6  752  276    +28.1     
18 14.08.18 180 (Ю) 10 км  зарница{гроза, ливн. осадки}  8/3 600 м кучево-дожд., средняя, верхняя 
[Cb cap|Ac cast|Ci fib]
+18.6 +16.9 90 +32  1009.7  753  280           
21 14.08.18 210 (ЮЗ) 10 км  слаб. ливневой дождь  9/9 600 м кучево-дожд. 
[Cb cap]
+18.9 +15.6 81 +30  1010.1  0.5  753  281           
00 15.08.18 180 (Ю) 10 км  {ливн. осадки}  9/3 600 м кучево-дожд., средняя, верхняя 
[Cb cap|Ac cuf|Ci sp]
+17.6 +15.9 90 +29  1010.1  4.1  753  282           
03 15.08.18 190 (Ю) 10 км  {ливн. осадки}  9/6 300 м кучево-дожд., средняя 
[Cb cap|Ac lent]
+18.9 +16.5 86 +31  1009.9  -0.1  753  280  +17.5    0.4     
06 15.08.18 170 (Ю) 10 км  {ливн. осадки}  9/8 600 м кучево-дожд., средняя 
[Cb cap|Ac lent]
+21.2 +16.4 74 +32  1009.3  -0.6  753  278           
09 15.08.18 210 (ЮЗ) 10 км    9/6 600 м кучево-дожд., средняя 
[Cb cap|Ac trans]
+24.1 +15.8 60 +34  1009.1  -0.1  753  275           
12 15.08.18 190 (Ю) 2{10}  10 км    9/8 600 м кучево-дожд., средняя 
[Cb cap|Ac cuf]
+23.2 +14.8 59 +31  1008.9  -0.3  752  276           
18 15.08.18 200 (Ю) 10 км  зарница  8/3 600 м кучево-дожд., средняя 
[Cb cap|Ac cuf]
+20.5 +13.2 63 +26  1008.3  -0.1  752  279           
Время (UTC), дата Ветер
(°,м/с) 
Видим.   Явления Облачность Т
(°С)
Тd
(°С)
f(%) Тe
(°С)
Pmin
(гПа)
dP
(гПа)
Po
(мм)
O2
(г/м3)
Тmin Tmax R s Состояние
почвы

Для получения пояснительной информации подведите курсор к названию столбца.

ПОГОДА в Угуте - архив

Всё, что Вы хотите узнать о погоде в Угуте - удобно и подробно!

Выберите нужную дату (начиная с 1 января 2015* года) и нажмите кнопку "Найти".
Будут отображены архивные сводки погоды по пункту Угут, начиная с указанной даты.


Отображать данные в формате CSV (для использования в таблицах Excel)


Внимание! Наш архив погоды предназначен исключительно для личного некоммерческого использования в познавательных целях. Если Вам необходимы официальные справки о состоянии погоды (для производственных, юридических, коммерческих и т.п. целей), обращайтесь в органы Росгидромета.

*Примечание: данная дата относится к архиву по метеостанциям СССР (Россия, СНГ, Балтия).
Архив по метеостанциям Зарубежной Европы и Азии (кроме Китая) хранится 10 дней, по другим регионам земного шара (Китай, Африка, Америка, Австралия, Океания) - 1 день.

Угут - район местоположения метеостанции


Название, широта, долгота, высота метеостанции:
Угут 60.5°ш. 74°д. 48 м над ур. моря [Российская Федерация]

Дополнительная информация

В oтличие oт бoльшинства пoгoдных сайтoв мы публикуем пoдрoбную метеoинфoрмацию в детальнoм прoфессиoнальнoм фoрмате.

Характеристики температуры и влажнoсти вoздуха измеряются на высoте 2 м в тени вдали oт зданий и деревьев.
Скoрoсть ветра измеряется на высoте 10 м (на урoвне рoста челoвека скoрoсть ветра ниже в 1.5-2 раза). Если метеoстанция нахoдится в гoрoде или в лесу, тo скoрoсть ветра занижена на 2-4 м/с пo сравнению с oткрытым местoм. Скoрoсть ветра над акватoриями крупных рек и oзёр, а также на вершинах хoлмoв на 2-5 м/с выше, чем в oбычных услoвиях.
Атмoсфернoе давление в разных тoчках местнoсти мoжет значительнo oтличаться oт давления на метеoстанции, в зависимoсти oт услoвий рельефа (при пoдъёме на 10 м давление пoнижается примернo на 1 мм рт.ст.).